User: anonymous   Login
Location: Altmatt
(47.1333°N, 8.7000°E)
Time: 21:55:34
(UTC+00:00)
Language:

Cosmos 1452 Rocket - Orbit

View from above orbital plane
View from above orbital plane
View from above satellite
View from above satellite

Ground track
Ground track

The orbit data is extracted from the following two-line orbital elements,

1 13992U 83031B   20269.45426929 +.00000037 +00000-0 +21553-4 0  9999
2 13992 074.0541 332.8509 0004993 003.2634 356.8550 14.36198082960537
Epoch (UTC): 25 September 2020 10:54:08
Eccentricity: 0.0004993
inclination: 74.0541°
perigee height: 767 km
apogee height: 774 km
right ascension of ascending node: 332.8509°
argument of perigee: 3.2634°
revolutions per day: 14.36198082
mean anomaly at epoch: 356.8550°
orbit number at epoch: 96053

The dashed part of the orbit path shows where the satellite is in the earth's shadow,  

DLR